{"data":{"norad_id":87014,"intl_designator":"","name":"UNKNOWN","alt_names":[],"object_type":"UNKNOWN","status":"UNKNOWN","operator":null,"country":null,"launch_date":null,"launch_site_code":null,"launch_vehicle":null,"mission":null,"orbit_class":"UNKNOWN","rcs_meters":null,"size_class":null,"mass_kg":null,"dimensions":null,"purposes":[],"wikipedia_slug":null,"has_3d_model":false,"image_url":null,"decayed_at":null,"tle_current":{"epoch":"2026-05-23T21:00:42.077664Z","epoch_age_seconds":175294,"freshness":"STALE","line1":"1 87014U          26143.87548701  .00001748  00000+0  26927-2 0  9993","line2":"2 87014 100.4736 122.1549 0043453 202.9877 188.7863 13.52674673612836","mean_motion":13.52674673,"eccentricity":0.0043453,"inclination_deg":100.4736,"raan_deg":122.1549,"arg_perigee_deg":202.9877,"mean_anomaly_deg":188.7863,"bstar":0.0026927,"rev_number":61283,"period_min":106.45575235074,"perigee_km":1030.1025511564,"apogee_km":1094.7655780505,"semimajor_km":7440.5710646035,"source":"CELESTRAK","updated_at":"2026-05-25T13:38:11.434657Z"}}}